This is the latest recevied weather packets stored in our database for station/object SQ3MKP-13. If no packets are shown the sender has not sent any weather packets the latest 10 day(s).
| Time | Temp. | Humidity | Pressure | Rain* | Wind** | Luminosity | Snow |
|---|---|---|---|---|---|---|---|
| 1777612397 | 8.89° C | 67% | 1017.9 hPa | - | - | 100 W/m² | - |
| 1777612096 | 8.89° C | 67% | 1017.8 hPa | - | - | 89 W/m² | - |
| 1777611795 | 8.33° C | 67% | 1017.8 hPa | - | - | 79 W/m² | - |
| 1777611494 | 8.33° C | 68% | 1017.8 hPa | - | - | 70 W/m² | - |
| 1777611193 | 7.78° C | 69% | 1017.8 hPa | - | - | 63 W/m² | - |
| 1777610891 | 7.78° C | 70% | 1017.8 hPa | - | - | 57 W/m² | - |
| 1777610591 | 7.22° C | 71% | 1017.7 hPa | - | - | 52 W/m² | - |
| 1777610290 | 7.22° C | 72% | 1017.7 hPa | - | - | 48 W/m² | - |
| 1777609989 | 6.67° C | 72% | 1017.7 hPa | - | - | 45 W/m² | - |
| 1777609688 | 6.67° C | 73% | 1017.6 hPa | - | - | 41 W/m² | - |
| 1777609392 | 6.11° C | 73% | 1017.6 hPa | - | - | 38 W/m² | - |
| 1777609086 | 6.11° C | 74% | 1017.6 hPa | - | - | 34 W/m² | - |
| 1777608786 | 6.11° C | 74% | 1017.6 hPa | - | - | 31 W/m² | - |
| 1777608485 | 6.11° C | 75% | 1017.6 hPa | - | - | 28 W/m² | - |
| 1777608184 | 6.11° C | 75% | 1017.7 hPa | - | - | 24 W/m² | - |
| 1777607883 | 5.56° C | 74% | 1017.6 hPa | - | - | 21 W/m² | - |
| 1777607582 | 6.11° C | 73% | 1017.6 hPa | - | - | 17 W/m² | - |
| 1777607281 | 6.11° C | 74% | 1017.6 hPa | - | - | 14 W/m² | - |
| 1777606980 | 5.56° C | 74% | 1017.6 hPa | - | - | 10 W/m² | - |
| 1777606679 | 5.56° C | 75% | 1017.6 hPa | - | - | 8 W/m² | - |
| 1777606378 | 5.56° C | 74% | 1017.6 hPa | - | - | 4 W/m² | - |
| 1777606077 | 5.56° C | 75% | 1017.6 hPa | - | - | 4 W/m² | - |
| 1777605776 | 5.56° C | 76% | 1017.7 hPa | - | - | 3 W/m² | - |
| 1777605476 | 5° C | 76% | 1017.6 hPa | - | - | 2 W/m² | - |
| 1777605175 | 5.56° C | 76% | 1017.6 hPa | - | - | 1 W/m² | - |
* Rain since midnight (hover to see other rain measurements)
** Current wind speed in m/s (hover to see current wind gust speed)